﻿測定場所 (Monitoring sites),日付 (Measurement date),時間 (Measurement time),線量率 最大値 (max) μGy/h,線量率 最小値 (min) μGy/h,線量率 平均値 (average) μGy/h,
調布 (Chofu),2021-05-09,23:01～24:00,0.0307,0.0265,0.0285,
調布 (Chofu),2021-05-09,22:01～23:00,0.0309,0.0268,0.0286,
調布 (Chofu),2021-05-09,21:01～22:00,0.0306,0.0266,0.0285,
調布 (Chofu),2021-05-09,20:01～21:00,0.0306,0.0264,0.0286,
調布 (Chofu),2021-05-09,19:01～20:00,0.0311,0.0269,0.0285,
調布 (Chofu),2021-05-09,18:01～19:00,0.0310,0.0271,0.0286,
調布 (Chofu),2021-05-09,17:01～18:00,0.0309,0.0266,0.0287,
調布 (Chofu),2021-05-09,16:01～17:00,0.0305,0.0264,0.0285,
調布 (Chofu),2021-05-09,15:01～16:00,0.0309,0.0261,0.0285,
調布 (Chofu),2021-05-09,14:01～15:00,0.0307,0.0262,0.0287,
調布 (Chofu),2021-05-09,13:01～14:00,0.0300,0.0267,0.0285,
調布 (Chofu),2021-05-09,12:01～13:00,0.0310,0.0269,0.0287,
調布 (Chofu),2021-05-09,11:01～12:00,0.0305,0.0264,0.0284,
調布 (Chofu),2021-05-09,10:01～11:00,0.0299,0.0266,0.0282,
調布 (Chofu),2021-05-09,09:01～10:00,0.0300,0.0261,0.0281,
調布 (Chofu),2021-05-09,08:01～09:00,0.0298,0.0261,0.0279,
調布 (Chofu),2021-05-09,07:01～08:00,0.0299,0.0258,0.0278,
調布 (Chofu),2021-05-09,06:01～07:00,0.0304,0.0258,0.0283,
調布 (Chofu),2021-05-09,05:01～06:00,0.0303,0.0261,0.0278,
調布 (Chofu),2021-05-09,04:01～05:00,0.0298,0.0263,0.0281,
調布 (Chofu),2021-05-09,03:01～04:00,0.0305,0.0263,0.0280,
調布 (Chofu),2021-05-09,02:01～03:00,0.0298,0.0262,0.0282,
調布 (Chofu),2021-05-09,01:01～02:00,0.0302,0.0259,0.0279,
調布 (Chofu),2021-05-09,00:01～01:00,0.0299,0.0260,0.0282,
調布 (Chofu),2021-05-08,23:01～24:00,0.0299,0.0261,0.0282,
調布 (Chofu),2021-05-08,22:01～23:00,0.0300,0.0260,0.0282,
調布 (Chofu),2021-05-08,21:01～22:00,0.0310,0.0265,0.0283,
調布 (Chofu),2021-05-08,20:01～21:00,0.0303,0.0263,0.0285,
調布 (Chofu),2021-05-08,19:01～20:00,0.0306,0.0275,0.0292,
調布 (Chofu),2021-05-08,18:01～19:00,0.0304,0.0264,0.0281,
調布 (Chofu),2021-05-08,17:01～18:00,0.0296,0.0265,0.0283,
調布 (Chofu),2021-05-08,16:01～17:00,0.0301,0.0253,0.0283,
調布 (Chofu),2021-05-08,15:01～16:00,0.0305,0.0263,0.0283,
調布 (Chofu),2021-05-08,14:01～15:00,0.0295,0.0265,0.0281,
調布 (Chofu),2021-05-08,13:01～14:00,0.0302,0.0263,0.0280,
調布 (Chofu),2021-05-08,12:01～13:00,0.0302,0.0263,0.0279,
調布 (Chofu),2021-05-08,11:01～12:00,0.0301,0.0263,0.0281,
調布 (Chofu),2021-05-08,10:01～11:00,0.0306,0.0266,0.0282,
調布 (Chofu),2021-05-08,09:01～10:00,0.0298,0.0265,0.0280,
調布 (Chofu),2021-05-08,08:01～09:00,0.0300,0.0268,0.0282,
調布 (Chofu),2021-05-08,07:01～08:00,0.0310,0.0264,0.0282,
調布 (Chofu),2021-05-08,06:01～07:00,0.0306,0.0264,0.0284,
調布 (Chofu),2021-05-08,05:01～06:00,0.0297,0.0264,0.0282,
調布 (Chofu),2021-05-08,04:01～05:00,0.0298,0.0257,0.0280,
調布 (Chofu),2021-05-08,03:01～04:00,0.0303,0.0267,0.0282,
調布 (Chofu),2021-05-08,02:01～03:00,0.0298,0.0249,0.0279,
調布 (Chofu),2021-05-08,01:01～02:00,0.0300,0.0257,0.0275,
調布 (Chofu),2021-05-08,00:01～01:00,0.0293,0.0257,0.0275,
調布 (Chofu),2021-05-07,23:01～24:00,0.0297,0.0261,0.0278,
調布 (Chofu),2021-05-07,22:01～23:00,0.0327,0.0265,0.0287,
調布 (Chofu),2021-05-07,21:01～22:00,0.0331,0.0282,0.0308,
調布 (Chofu),2021-05-07,20:01～21:00,0.0310,0.0269,0.0291,
調布 (Chofu),2021-05-07,19:01～20:00,0.0335,0.0278,0.0304,
調布 (Chofu),2021-05-07,18:01～19:00,0.0412,0.0313,0.0362,
調布 (Chofu),2021-05-07,17:01～18:00,0.0423,0.0325,0.0381,
調布 (Chofu),2021-05-07,16:01～17:00,0.0362,0.0295,0.0334,
調布 (Chofu),2021-05-07,15:01～16:00,0.0360,0.0295,0.0331,
調布 (Chofu),2021-05-07,14:01～15:00,0.0324,0.0269,0.0293,
調布 (Chofu),2021-05-07,13:01～14:00,0.0293,0.0259,0.0277,
調布 (Chofu),2021-05-07,12:01～13:00,0.0293,0.0253,0.0273,
調布 (Chofu),2021-05-07,11:01～12:00,0.0299,0.0257,0.0279,
調布 (Chofu),2021-05-07,10:01～11:00,0.0300,0.0260,0.0283,
調布 (Chofu),2021-05-07,09:01～10:00,0.0304,0.0266,0.0281,
調布 (Chofu),2021-05-07,08:01～09:00,0.0298,0.0262,0.0280,
調布 (Chofu),2021-05-07,07:01～08:00,0.0300,0.0265,0.0285,
調布 (Chofu),2021-05-07,06:01～07:00,0.0306,0.0257,0.0283,
調布 (Chofu),2021-05-07,05:01～06:00,0.0305,0.0264,0.0284,
調布 (Chofu),2021-05-07,04:01～05:00,0.0305,0.0262,0.0280,
調布 (Chofu),2021-05-07,03:01～04:00,0.0294,0.0260,0.0279,
調布 (Chofu),2021-05-07,02:01～03:00,0.0294,0.0263,0.0280,
調布 (Chofu),2021-05-07,01:01～02:00,0.0296,0.0260,0.0275,
調布 (Chofu),2021-05-07,00:01～01:00,0.0298,0.0260,0.0280,
調布 (Chofu),2021-05-06,23:01～24:00,0.0293,0.0261,0.0278,
調布 (Chofu),2021-05-06,22:01～23:00,0.0302,0.0258,0.0275,
調布 (Chofu),2021-05-06,21:01～22:00,0.0290,0.0255,0.0273,
調布 (Chofu),2021-05-06,20:01～21:00,0.0296,0.0253,0.0275,
調布 (Chofu),2021-05-06,19:01～20:00,0.0293,0.0250,0.0275,
調布 (Chofu),2021-05-06,18:01～19:00,0.0299,0.0253,0.0277,
調布 (Chofu),2021-05-06,17:01～18:00,0.0300,0.0262,0.0280,
調布 (Chofu),2021-05-06,16:01～17:00,0.0292,0.0255,0.0276,
調布 (Chofu),2021-05-06,15:01～16:00,0.0292,0.0264,0.0278,
調布 (Chofu),2021-05-06,14:01～15:00,0.0295,0.0261,0.0277,
調布 (Chofu),2021-05-06,13:01～14:00,0.0293,0.0250,0.0277,
調布 (Chofu),2021-05-06,12:01～13:00,0.0298,0.0254,0.0278,
調布 (Chofu),2021-05-06,11:01～12:00,0.0293,0.0259,0.0275,
調布 (Chofu),2021-05-06,10:01～11:00,0.0306,0.0252,0.0274,
調布 (Chofu),2021-05-06,09:01～10:00,0.0294,0.0257,0.0276,
調布 (Chofu),2021-05-06,08:01～09:00,0.0295,0.0265,0.0281,
調布 (Chofu),2021-05-06,07:01～08:00,0.0305,0.0267,0.0284,
調布 (Chofu),2021-05-06,06:01～07:00,0.0318,0.0272,0.0292,
調布 (Chofu),2021-05-06,05:01～06:00,0.0331,0.0287,0.0305,
調布 (Chofu),2021-05-06,04:01～05:00,0.0342,0.0294,0.0315,
調布 (Chofu),2021-05-06,03:01～04:00,0.0317,0.0270,0.0290,
調布 (Chofu),2021-05-06,02:01～03:00,0.0307,0.0256,0.0283,
調布 (Chofu),2021-05-06,01:01～02:00,0.0296,0.0250,0.0276,
調布 (Chofu),2021-05-06,00:01～01:00,0.0290,0.0253,0.0274,
調布 (Chofu),2021-05-05,23:01～24:00,0.0289,0.0249,0.0273,
調布 (Chofu),2021-05-05,22:01～23:00,0.0301,0.0256,0.0274,
調布 (Chofu),2021-05-05,21:01～22:00,0.0290,0.0253,0.0273,
調布 (Chofu),2021-05-05,20:01～21:00,0.0285,0.0256,0.0271,
調布 (Chofu),2021-05-05,19:01～20:00,0.0294,0.0258,0.0273,
調布 (Chofu),2021-05-05,18:01～19:00,0.0294,0.0258,0.0274,
調布 (Chofu),2021-05-05,17:01～18:00,0.0300,0.0257,0.0276,
調布 (Chofu),2021-05-05,16:01～17:00,0.0303,0.0261,0.0284,
調布 (Chofu),2021-05-05,15:01～16:00,0.0368,0.0289,0.0321,
調布 (Chofu),2021-05-05,14:01～15:00,0.0415,0.0342,0.0375,
調布 (Chofu),2021-05-05,13:01～14:00,0.0394,0.0333,0.0356,
調布 (Chofu),2021-05-05,12:01～13:00,0.0351,0.0270,0.0296,
調布 (Chofu),2021-05-05,11:01～12:00,0.0339,0.0272,0.0297,
調布 (Chofu),2021-05-05,10:01～11:00,0.0337,0.0260,0.0307,
調布 (Chofu),2021-05-05,09:01～10:00,0.0292,0.0252,0.0276,
調布 (Chofu),2021-05-05,08:01～09:00,0.0293,0.0261,0.0277,
調布 (Chofu),2021-05-05,07:01～08:00,0.0301,0.0254,0.0277,
調布 (Chofu),2021-05-05,06:01～07:00,0.0309,0.0273,0.0291,
調布 (Chofu),2021-05-05,05:01～06:00,0.0309,0.0268,0.0291,
調布 (Chofu),2021-05-05,04:01～05:00,0.0301,0.0269,0.0285,
調布 (Chofu),2021-05-05,03:01～04:00,0.0308,0.0270,0.0290,
調布 (Chofu),2021-05-05,02:01～03:00,0.0315,0.0277,0.0293,
調布 (Chofu),2021-05-05,01:01～02:00,0.0312,0.0278,0.0296,
調布 (Chofu),2021-05-05,00:01～01:00,0.0313,0.0273,0.0291,
調布 (Chofu),2021-05-04,23:01～24:00,0.0310,0.0259,0.0285,
調布 (Chofu),2021-05-04,22:01～23:00,0.0309,0.0253,0.0285,
調布 (Chofu),2021-05-04,21:01～22:00,0.0297,0.0260,0.0277,
調布 (Chofu),2021-05-04,20:01～21:00,0.0301,0.0261,0.0278,
調布 (Chofu),2021-05-04,19:01～20:00,0.0296,0.0260,0.0277,
調布 (Chofu),2021-05-04,18:01～19:00,0.0301,0.0260,0.0278,
調布 (Chofu),2021-05-04,17:01～18:00,0.0302,0.0261,0.0278,
調布 (Chofu),2021-05-04,16:01～17:00,0.0300,0.0260,0.0277,
調布 (Chofu),2021-05-04,15:01～16:00,0.0297,0.0258,0.0277,
調布 (Chofu),2021-05-04,14:01～15:00,0.0298,0.0257,0.0278,
調布 (Chofu),2021-05-04,13:01～14:00,0.0301,0.0258,0.0276,
調布 (Chofu),2021-05-04,12:01～13:00,0.0297,0.0259,0.0276,
調布 (Chofu),2021-05-04,11:01～12:00,0.0298,0.0254,0.0275,
調布 (Chofu),2021-05-04,10:01～11:00,0.0295,0.0252,0.0275,
調布 (Chofu),2021-05-04,09:01～10:00,0.0302,0.0256,0.0279,
調布 (Chofu),2021-05-04,08:01～09:00,0.0307,0.0265,0.0283,
調布 (Chofu),2021-05-04,07:01～08:00,0.0318,0.0268,0.0289,
調布 (Chofu),2021-05-04,06:01～07:00,0.0313,0.0272,0.0289,
調布 (Chofu),2021-05-04,05:01～06:00,0.0315,0.0273,0.0289,
調布 (Chofu),2021-05-04,04:01～05:00,0.0302,0.0273,0.0286,
調布 (Chofu),2021-05-04,03:01～04:00,0.0309,0.0263,0.0284,
調布 (Chofu),2021-05-04,02:01～03:00,0.0308,0.0259,0.0283,
調布 (Chofu),2021-05-04,01:01～02:00,0.0305,0.0262,0.0284,
調布 (Chofu),2021-05-04,00:01～01:00,0.0304,0.0267,0.0283,
調布 (Chofu),2021-05-03,23:01～24:00,0.0305,0.0262,0.0282,
調布 (Chofu),2021-05-03,22:01～23:00,0.0302,0.0261,0.0279,
調布 (Chofu),2021-05-03,21:01～22:00,0.0295,0.0259,0.0277,
調布 (Chofu),2021-05-03,20:01～21:00,0.0297,0.0251,0.0277,
調布 (Chofu),2021-05-03,19:01～20:00,0.0294,0.0253,0.0272,
調布 (Chofu),2021-05-03,18:01～19:00,0.0297,0.0258,0.0275,
調布 (Chofu),2021-05-03,17:01～18:00,0.0298,0.0259,0.0274,
調布 (Chofu),2021-05-03,16:01～17:00,0.0301,0.0248,0.0275,
調布 (Chofu),2021-05-03,15:01～16:00,0.0296,0.0257,0.0276,
調布 (Chofu),2021-05-03,14:01～15:00,0.0288,0.0255,0.0273,
調布 (Chofu),2021-05-03,13:01～14:00,0.0285,0.0249,0.0272,
調布 (Chofu),2021-05-03,12:01～13:00,0.0300,0.0255,0.0276,
調布 (Chofu),2021-05-03,11:01～12:00,0.0289,0.0258,0.0272,
調布 (Chofu),2021-05-03,10:01～11:00,0.0293,0.0255,0.0273,
調布 (Chofu),2021-05-03,09:01～10:00,0.0296,0.0253,0.0271,
調布 (Chofu),2021-05-03,08:01～09:00,0.0291,0.0260,0.0273,
調布 (Chofu),2021-05-03,07:01～08:00,0.0293,0.0256,0.0276,
調布 (Chofu),2021-05-03,06:01～07:00,0.0294,0.0261,0.0276,
調布 (Chofu),2021-05-03,05:01～06:00,0.0293,0.0250,0.0271,
調布 (Chofu),2021-05-03,04:01～05:00,0.0291,0.0252,0.0274,
調布 (Chofu),2021-05-03,03:01～04:00,0.0295,0.0252,0.0272,
調布 (Chofu),2021-05-03,02:01～03:00,0.0287,0.0246,0.0270,
調布 (Chofu),2021-05-03,01:01～02:00,0.0292,0.0257,0.0272,
調布 (Chofu),2021-05-03,00:01～01:00,0.0297,0.0252,0.0271,
